LOWWEPKK

Guest
Details From LOWW - Wien Schwechat
To EPKK - Balice
Flight Number -
Tags Generated
Created
Modified
Stats Distance 172 nm / 318 km
Max Altitude 0 ft / 0 m
Waypoints 2
Social Downloads 1
Likes 0
Share VATSIM

Download

Looking for another format? Having issues loading an existing format? Contact us
Advertisement - Login to hide

Notes

Generated

Route

LOWW EPKK

ID Type Via Altitude Latitude Longitude Leg Dist Tot Dist Heading (true) Name
O LOWW APT - 0 ft / 0 m 48.11978˚ 16.57818˚ - 0 nm - -
O EPKK APT - 0 ft / 0 m 50.07540˚ 19.76809˚ 171 nm 171 nm 46° / 48° -

Altitude Profile

Advertisement - Login to hide

Weather


0- 5 10 15 20 25 30 35+ Temperature / ° C

Clouds and Precipitation
Forecast for 2017-12-18 06:00 UTC. Updated 11 minutes ago

Ground ~20,000 ft ~40,000 ft Winds

LOWW

Details ICAO LOWW (VIE)
Name Wien Schwechat
Region Austria
Timezone Europe/Vienna (UTC+1.0)
Stats Elevation 600 ft / 183 m (AMSL)
Location 48.110068° 16.569637°
Runways 2
Magnetic Variation 4.258° E

METAR

LOWW 180520Z 32008KT 9999 FEW035 M02/M04 Q1023 R88/15//95 NOSIG

Decode

TAF

TAF LOWW 172315Z 1800/1906 30012KT 9999 BKN030 TX02/1800Z TNM04/1906Z PROB40 TEMPO 1800/1806 6000 -SHSN BKN020 BECMG 1806/1809 34007KT SCT040

Decode

Departure Runways

ID Width Length Bearing (true) Bearing (mag) Surface Threshold Offset Overrun Length
11 148 ft / 45 m 11,457 ft / 3,492 m 115.99° 111.73° Asphalt 0 ft / 0 m 0 ft / 0 m
16 148 ft / 45 m 11,811 ft / 3,600 m 164.23° 159.97° Asphalt 0 ft / 0 m 33 ft / 10 m
29 148 ft / 45 m 11,457 ft / 3,492 m 296.03° 291.77° Asphalt 0 ft / 0 m 0 ft / 0 m
34 148 ft / 45 m 11,811 ft / 3,600 m 344.24° 339.98° Asphalt 0 ft / 0 m 0 ft / 0 m

EPKK

Details ICAO EPKK (KRK)
Name BALICE
Region Poland
Timezone Europe/Warsaw (UTC+1.0)
Stats Elevation 791 ft / 241 m (AMSL)
Location 50.077821° 19.785503°
Runways 1
Magnetic Variation 5.203° E

METAR

EPKK 180530Z 12001KT 1500 -SN BR BKN019 BKN035 M01/M02 Q1022 R25/1///95

Decode

TAF

TAF EPKK 172330Z 1800/1824 VRB02KT 2000 BR BKN040 TEMPO 1800/1808 0500 FZFG BKN002 BECMG 1808/1811 7000 BECMG 1815/1817 2000 BR

Decode

Destination Runways

ID Width Length Bearing (true) Bearing (mag) Surface Threshold Offset Overrun Length
07 197 ft / 60 m 8,343 ft / 2,543 m 77.75° 72.55° Concrete 0 ft / 0 m 0 ft / 0 m
25 197 ft / 60 m 8,343 ft / 2,543 m 257.77° 252.57° Concrete 784 ft / 239 m 0 ft / 0 m

Approach Navaids

Runway Type Ident Frequency Range Bearing (true) Bearing (mag) Slope Elevation
25 Localiser KRW 110.30 MHz 18 nm / 33 km 257.73° 252.53° - 791 ft / 241 m (AMSL)
25 Glidescope KRW 110.30 MHz 10 nm / 19 km 257.76° 252.56° 3.00° 791 ft / 241 m (AMSL)
25 DME KRW 110.30 MHz 18 nm / 33 km - - - 827 ft / 252 m (AMSL)

Popular Alternatives